Time,TemperatureF,DewpointF,PressureIn,WindDirection,WindDirectionDegrees,WindSpeedMPH,WindSpeedGustMPH,Humidity,HourlyPrecipIn,Conditions,Clouds,dailyrainin,SoftwareType,DateUTC
2013-06-25 00:00:00,75.2,70.0,29.77,West,265,0.0,0.0,84,0.00,CLR,,0.00,WeatherDisplay:10.37,2013-06-24 21:00:00,
2013-06-25 00:05:00,75.1,69.9,29.77,West,265,0.0,0.0,84,0.00,CLR,,0.00,WeatherDisplay:10.37,2013-06-24 21:05:00,
2013-06-25 00:10:00,75.0,69.8,29.77,West,265,0.0,0.0,84,0.00,CLR,,0.00,WeatherDisplay:10.37,2013-06-24 21:10:00,
2013-06-25 00:20:00,74.8,69.6,29.76,West,265,0.0,0.0,84,0.00,CLR,,0.00,WeatherDisplay:10.37,2013-06-24 21:20:00,
2013-06-25 00:25:00,74.6,69.1,29.76,West,265,0.0,1.0,83,0.00,CLR,,0.00,WeatherDisplay:10.37,2013-06-24 21:25:00,
2013-06-25 00:30:00,74.5,69.0,29.76,West,265,0.0,1.0,83,0.00,CLR,,0.00,WeatherDisplay:10.37,2013-06-24 21:30:00,
2013-06-25 00:35:00,74.4,69.2,29.76,West,265,0.0,0.0,84,0.00,CLR,,0.00,WeatherDisplay:10.37,2013-06-24 21:35:00,
2013-06-25 00:40:00,74.3,69.1,29.76,West,265,0.0,0.0,84,0.00,CLR,,0.00,WeatherDisplay:10.37,2013-06-24 21:40:00,
2013-06-25 00:45:00,74.3,69.1,29.76,West,265,0.0,0.0,84,0.00,CLR,,0.00,WeatherDisplay:10.37,2013-06-24 21:45:00,
2013-06-25 00:50:00,74.2,69.4,29.76,West,265,0.0,0.0,85,0.00,CLR,,0.00,WeatherDisplay:10.37,2013-06-24 21:50:00,
2013-06-25 00:55:00,74.1,69.3,29.76,West,265,0.0,1.0,85,0.00,CLR,,0.00,WeatherDisplay:10.37,2013-06-24 21:55:00,
2013-06-25 01:05:00,74.2,69.4,29.76,West,265,0.0,0.0,85,0.00,SCT,,0.00,WeatherDisplay:10.37,2013-06-24 22:05:00,
2013-06-25 01:10:00,74.2,69.4,29.76,West,265,0.0,1.0,85,0.00,SCT,,0.00,WeatherDisplay:10.37,2013-06-24 22:10:00,
2013-06-25 01:15:00,74.1,69.3,29.76,West,265,0.0,2.0,85,0.00,SCT,,0.00,WeatherDisplay:10.37,2013-06-24 22:15:00,
2013-06-25 01:20:00,74.1,69.0,29.75,West,265,0.0,0.0,84,0.00,SCT,,0.00,WeatherDisplay:10.37,2013-06-24 22:20:00,
2013-06-25 01:30:00,73.8,68.3,29.75,West,265,0.0,0.0,83,0.00,SCT,,0.00,WeatherDisplay:10.37,2013-06-24 22:30:00,
2013-06-25 01:35:00,73.8,68.3,29.75,West,265,0.0,0.0,83,0.00,SCT,,0.00,WeatherDisplay:10.37,2013-06-24 22:35:00,
2013-06-25 01:45:00,73.6,68.1,29.75,West,265,0.0,1.0,83,0.00,SCT,,0.00,WeatherDisplay:10.37,2013-06-24 22:45:00,
2013-06-25 01:50:00,73.6,68.1,29.75,West,265,0.0,0.0,83,0.00,SCT,,0.00,WeatherDisplay:10.37,2013-06-24 22:50:00,
2013-06-25 01:55:00,73.7,68.2,29.75,West,265,0.0,0.0,83,0.00,SCT,,0.00,WeatherDisplay:10.37,2013-06-24 22:55:00,
2013-06-25 02:00:00,73.7,68.6,29.75,West,265,0.0,1.0,84,0.00,SCT,,0.00,WeatherDisplay:10.37,2013-06-24 23:00:00,
2013-06-25 02:05:00,73.8,68.6,29.75,West,265,0.0,0.0,84,0.00,SCT,,0.00,WeatherDisplay:10.37,2013-06-24 23:05:00,
2013-06-25 02:20:00,73.8,68.7,29.75,West,265,0.0,0.0,84,0.00,SCT,,0.00,WeatherDisplay:10.37,2013-06-24 23:20:00,
2013-06-25 02:25:00,73.9,69.1,29.75,West,265,0.0,0.0,85,0.00,SCT,,0.00,WeatherDisplay:10.37,2013-06-24 23:25:00,
2013-06-25 02:30:00,73.9,68.7,29.75,West,265,0.0,0.0,84,0.00,SCT,,0.00,WeatherDisplay:10.37,2013-06-24 23:30:00,
2013-06-25 02:40:00,73.7,68.9,29.74,West,265,0.0,0.0,85,0.00,SCT,,0.00,WeatherDisplay:10.37,2013-06-24 23:40:00,
2013-06-25 02:50:00,73.5,68.7,29.74,West,265,0.0,0.0,85,0.00,SCT,,0.00,WeatherDisplay:10.37,2013-06-24 23:50:00,
2013-06-25 02:55:00,73.5,68.7,29.74,West,265,0.0,0.0,85,0.00,SCT,,0.00,WeatherDisplay:10.37,2013-06-24 23:55:00,
2013-06-25 03:05:00,73.2,68.4,29.75,West,265,0.0,0.0,85,0.00,SCT,,0.00,WeatherDisplay:10.37,2013-06-25 00:05:00,
2013-06-25 03:10:00,73.2,68.4,29.75,West,265,0.0,0.0,85,0.00,SCT,,0.00,WeatherDisplay:10.37,2013-06-25 00:10:00,
2013-06-25 03:15:00,73.3,68.9,29.75,West,265,0.0,0.0,86,0.00,SCT,,0.00,WeatherDisplay:10.37,2013-06-25 00:15:00,
2013-06-25 03:20:00,73.3,68.9,29.75,West,265,0.0,0.0,86,0.00,SCT,,0.00,WeatherDisplay:10.37,2013-06-25 00:20:00,
2013-06-25 03:25:00,73.3,68.9,29.75,West,265,0.0,0.0,86,0.00,SCT,,0.00,WeatherDisplay:10.37,2013-06-25 00:25:00,
2013-06-25 03:35:00,73.2,68.4,29.75,West,265,0.0,1.0,85,0.00,SCT,,0.00,WeatherDisplay:10.37,2013-06-25 00:35:00,
2013-06-25 03:40:00,73.1,68.7,29.75,West,265,0.0,1.0,86,0.00,SCT,,0.00,WeatherDisplay:10.37,2013-06-25 00:40:00,
2013-06-25 03:50:00,72.8,68.4,29.75,West,265,0.0,1.0,86,0.00,SCT,,0.00,WeatherDisplay:10.37,2013-06-25 00:50:00,
2013-06-25 03:55:00,72.7,68.3,29.75,West,265,0.0,0.0,86,0.00,SCT,,0.00,WeatherDisplay:10.37,2013-06-25 00:55:00,
2013-06-25 04:00:00,72.6,68.5,29.75,West,265,0.0,1.0,87,0.00,SCT,,0.00,WeatherDisplay:10.37,2013-06-25 01:00:00,
2013-06-25 04:05:00,72.4,68.3,29.75,West,265,0.0,1.0,87,0.00,BKN,,0.00,WeatherDisplay:10.37,2013-06-25 01:05:00,
2013-06-25 04:25:00,72.1,68.0,29.75,West,265,0.0,0.0,87,0.00,BKN,,0.00,WeatherDisplay:10.37,2013-06-25 01:25:00,
2013-06-25 04:30:00,72.0,67.9,29.75,West,265,0.0,1.0,87,0.00,BKN,,0.00,WeatherDisplay:10.37,2013-06-25 01:30:00,
2013-06-25 04:40:00,71.9,67.8,29.75,West,265,0.0,1.0,87,0.00,BKN,,0.00,WeatherDisplay:10.37,2013-06-25 01:40:00,
2013-06-25 04:45:00,71.8,67.7,29.75,West,265,0.0,0.0,87,0.00,BKN,,0.00,WeatherDisplay:10.37,2013-06-25 01:45:00,
2013-06-25 04:50:00,71.8,67.7,29.74,West,265,0.0,0.0,87,0.00,BKN,,0.00,WeatherDisplay:10.37,2013-06-25 01:50:00,
2013-06-25 05:00:00,71.7,67.6,29.75,West,265,0.0,0.0,87,0.00,BKN,,0.00,WeatherDisplay:10.37,2013-06-25 02:00:00,
2013-06-25 05:05:00,71.7,67.6,29.75,West,265,0.0,1.0,87,0.00,BKN,,0.00,WeatherDisplay:10.37,2013-06-25 02:05:00,
2013-06-25 05:10:00,71.6,67.5,29.75,West,265,0.0,1.0,87,0.00,BKN,,0.00,WeatherDisplay:10.37,2013-06-25 02:10:00,
2013-06-25 05:15:00,71.5,67.4,29.75,West,265,0.0,0.0,87,0.00,BKN,,0.00,WeatherDisplay:10.37,2013-06-25 02:15:00,
2013-06-25 05:20:00,71.4,67.3,29.75,West,265,0.0,1.0,87,0.00,BKN,,0.00,WeatherDisplay:10.37,2013-06-25 02:20:00,
2013-06-25 05:35:00,71.2,67.1,29.75,West,265,0.0,2.0,87,0.00,BKN,,0.00,WeatherDisplay:10.37,2013-06-25 02:35:00,
2013-06-25 05:40:00,71.1,67.1,29.75,West,265,0.0,1.0,87,0.00,BKN,,0.00,WeatherDisplay:10.37,2013-06-25 02:40:00,
2013-06-25 05:45:00,71.2,67.1,29.75,West,265,0.0,1.0,87,0.00,BKN,,0.00,WeatherDisplay:10.37,2013-06-25 02:45:00,
2013-06-25 05:55:00,71.2,67.1,29.75,West,265,0.0,1.0,87,0.00,SCT,,0.00,WeatherDisplay:10.37,2013-06-25 02:55:00,
2013-06-25 06:00:00,71.2,67.1,29.76,West,265,0.0,1.0,87,0.00,SCT,,0.00,WeatherDisplay:10.37,2013-06-25 03:00:00,
2013-06-25 06:05:00,71.2,67.1,29.75,West,265,0.0,1.0,87,0.00,BKN,,0.00,WeatherDisplay:10.37,2013-06-25 03:05:00,
2013-06-25 06:10:00,71.3,67.2,29.75,West,265,0.0,0.0,87,0.00,BKN,,0.00,WeatherDisplay:10.37,2013-06-25 03:10:00,
2013-06-25 06:25:00,71.5,67.4,29.75,West,265,0.0,1.0,87,0.00,BKN,,0.00,WeatherDisplay:10.37,2013-06-25 03:25:00,
2013-06-25 06:35:00,71.8,67.8,29.75,West,265,0.0,1.0,87,0.00,BKN,,0.00,WeatherDisplay:10.37,2013-06-25 03:35:00,
2013-06-25 06:45:00,72.2,68.1,29.76,West,265,0.0,2.0,87,0.00,BKN,,0.00,WeatherDisplay:10.37,2013-06-25 03:45:00,
2013-06-25 06:50:00,72.4,68.3,29.76,West,265,0.0,1.0,87,0.00,BKN,,0.00,WeatherDisplay:10.37,2013-06-25 03:50:00,
2013-06-25 06:55:00,72.7,68.6,29.76,West,265,0.0,1.0,87,0.00,BKN,,0.00,WeatherDisplay:10.37,2013-06-25 03:55:00,
2013-06-25 07:00:00,73.0,68.6,29.76,West,265,0.0,0.0,86,0.00,BKN,,0.00,WeatherDisplay:10.37,2013-06-25 04:00:00,
2013-06-25 07:05:00,73.6,69.1,29.76,West,265,0.0,1.0,86,0.00,FEW,,0.00,WeatherDisplay:10.37,2013-06-25 04:05:00,
2013-06-25 07:10:00,74.4,69.9,29.76,West,265,0.0,1.0,86,0.00,FEW,,0.00,WeatherDisplay:10.37,2013-06-25 04:10:00,
2013-06-25 07:15:00,75.0,70.2,29.76,WSW,257,0.0,3.0,85,0.00,FEW,,0.00,WeatherDisplay:10.37,2013-06-25 04:15:00,
2013-06-25 07:20:00,75.6,70.4,29.76,WSW,244,0.0,3.0,84,0.00,FEW,,0.00,WeatherDisplay:10.37,2013-06-25 04:20:00,
2013-06-25 07:30:00,76.8,70.9,29.76,SSW,199,1.0,3.0,82,0.00,FEW,,0.00,WeatherDisplay:10.37,2013-06-25 04:30:00,
2013-06-25 07:35:00,77.2,70.9,29.76,SW,219,1.0,4.0,81,0.00,FEW,,0.00,WeatherDisplay:10.37,2013-06-25 04:35:00,
2013-06-25 07:40:00,77.3,71.0,29.76,SW,221,1.0,5.0,81,0.00,FEW,,0.00,WeatherDisplay:10.37,2013-06-25 04:40:00,
2013-06-25 07:45:00,77.6,71.3,29.76,SSW,213,0.0,4.0,81,0.00,FEW,,0.00,WeatherDisplay:10.37,2013-06-25 04:45:00,
2013-06-25 07:50:00,78.0,71.4,29.76,SW,219,1.0,5.0,80,0.00,FEW,,0.00,WeatherDisplay:10.37,2013-06-25 04:50:00,
2013-06-25 07:55:00,78.6,71.9,29.76,South,188,2.0,5.0,80,0.00,FEW,,0.00,WeatherDisplay:10.37,2013-06-25 04:55:00,
2013-06-25 08:00:00,79.0,72.0,29.76,South,172,1.0,5.0,79,0.00,FEW,,0.00,WeatherDisplay:10.37,2013-06-25 05:00:00,
2013-06-25 08:05:00,79.5,71.7,29.76,SSE,165,0.0,4.0,77,0.00,SCT,,0.00,WeatherDisplay:10.37,2013-06-25 05:05:00,
2013-06-25 08:10:00,80.0,71.8,29.76,SSE,153,2.0,4.0,76,0.00,SCT,,0.00,WeatherDisplay:10.37,2013-06-25 05:10:00,
2013-06-25 08:15:00,80.2,71.6,29.77,SSW,193,1.0,4.0,75,0.00,SCT,,0.00,WeatherDisplay:10.37,2013-06-25 05:15:00,
2013-06-25 08:20:00,80.4,71.7,29.77,South,176,2.0,6.0,75,0.00,SCT,,0.00,WeatherDisplay:10.37,2013-06-25 05:20:00,
2013-06-25 08:30:00,81.0,71.9,29.77,South,190,2.0,7.0,74,0.00,SCT,,0.00,WeatherDisplay:10.37,2013-06-25 05:30:00,
2013-06-25 08:35:00,80.7,71.6,29.77,SSW,192,2.0,9.0,74,0.00,BKN,,0.00,WeatherDisplay:10.37,2013-06-25 05:35:00,
2013-06-25 08:40:00,81.1,72.0,29.77,South,191,1.0,5.0,74,0.00,BKN,,0.00,WeatherDisplay:10.37,2013-06-25 05:40:00,
2013-06-25 08:45:00,81.1,71.2,29.77,SSW,202,0.0,5.0,72,0.00,BKN,,0.00,WeatherDisplay:10.37,2013-06-25 05:45:00,
2013-06-25 08:50:00,81.4,71.9,29.77,South,189,1.0,4.0,73,0.00,BKN,,0.00,WeatherDisplay:10.37,2013-06-25 05:50:00,
2013-06-25 08:55:00,82.0,71.6,29.77,SSW,204,5.0,7.0,71,0.00,BKN,,0.00,WeatherDisplay:10.37,2013-06-25 05:55:00,
2013-06-25 09:00:00,81.6,71.3,29.77,SW,214,2.0,7.0,71,0.00,BKN,,0.00,WeatherDisplay:10.37,2013-06-25 06:00:00,
2013-06-25 09:05:00,81.8,71.5,29.77,SSW,211,2.0,6.0,71,0.00,BKN,,0.00,WeatherDisplay:10.37,2013-06-25 06:05:00,
2013-06-25 09:10:00,82.2,71.0,29.77,South,191,2.0,7.0,69,0.00,BKN,,0.00,WeatherDisplay:10.37,2013-06-25 06:10:00,
2013-06-25 09:15:00,81.9,71.2,29.77,SSW,196,1.0,9.0,70,0.00,BKN,,0.00,WeatherDisplay:10.37,2013-06-25 06:15:00,
2013-06-25 09:25:00,82.0,71.2,29.77,SSW,212,1.0,9.0,70,0.00,BKN,,0.00,WeatherDisplay:10.37,2013-06-25 06:25:00,
2013-06-25 09:30:00,82.4,71.2,29.77,SSW,209,2.0,8.0,69,0.00,BKN,,0.00,WeatherDisplay:10.37,2013-06-25 06:30:00,
2013-06-25 09:35:00,83.1,71.8,29.77,SSW,202,3.0,7.0,69,0.00,SCT,,0.00,WeatherDisplay:10.37,2013-06-25 06:35:00,
2013-06-25 09:40:00,83.5,71.4,29.77,SSW,199,6.0,9.0,67,0.00,SCT,,0.00,WeatherDisplay:10.37,2013-06-25 06:40:00,
2013-06-25 09:45:00,83.2,70.7,29.77,SW,216,6.0,9.0,66,0.00,SCT,,0.00,WeatherDisplay:10.37,2013-06-25 06:45:00,
2013-06-25 09:50:00,83.3,70.3,29.77,SW,221,3.0,10.0,65,0.00,SCT,,0.00,WeatherDisplay:10.37,2013-06-25 06:50:00,
2013-06-25 09:55:00,83.6,70.6,29.77,SW,222,0.0,7.0,65,0.00,SCT,,0.00,WeatherDisplay:10.37,2013-06-25 06:55:00,
2013-06-25 10:00:00,84.4,71.3,29.77,SW,221,1.0,5.0,65,0.00,SCT,,0.00,WeatherDisplay:10.37,2013-06-25 07:00:00,
2013-06-25 10:05:00,84.8,70.3,29.77,SW,221,2.0,7.0,62,0.00,SCT,,0.00,WeatherDisplay:10.37,2013-06-25 07:05:00,
2013-06-25 10:10:00,84.8,70.8,29.77,SSW,201,0.0,6.0,63,0.00,SCT,,0.00,WeatherDisplay:10.37,2013-06-25 07:10:00,
2013-06-25 10:15:00,85.5,71.0,29.77,South,186,2.0,5.0,62,0.00,SCT,,0.00,WeatherDisplay:10.37,2013-06-25 07:15:00,
2013-06-25 10:20:00,86.0,71.5,29.77,South,190,2.0,7.0,62,0.00,SCT,,0.00,WeatherDisplay:10.37,2013-06-25 07:20:00,
2013-06-25 10:25:00,86.0,70.5,29.77,SW,218,3.0,8.0,60,0.00,SCT,,0.00,WeatherDisplay:10.37,2013-06-25 07:25:00,
2013-06-25 10:30:00,86.0,70.9,29.77,SW,217,5.0,8.0,61,0.00,SCT,,0.00,WeatherDisplay:10.37,2013-06-25 07:30:00,
2013-06-25 10:35:00,85.6,70.6,29.77,SSW,213,2.0,7.0,61,0.00,SCT,,0.00,WeatherDisplay:10.37,2013-06-25 07:35:00,
2013-06-25 10:40:00,85.7,69.7,29.77,SW,217,3.0,8.0,59,0.00,SCT,,0.00,WeatherDisplay:10.37,2013-06-25 07:40:00,
2013-06-25 10:45:00,85.9,70.4,29.77,SW,232,2.0,7.0,60,0.00,SCT,,0.00,WeatherDisplay:10.37,2013-06-25 07:45:00,
2013-06-25 10:50:00,86.2,70.7,29.77,SW,227,2.0,9.0,60,0.00,SCT,,0.00,WeatherDisplay:10.37,2013-06-25 07:50:00,
2013-06-25 10:55:00,86.2,71.2,29.77,SW,219,3.0,12.0,61,0.00,SCT,,0.00,WeatherDisplay:10.37,2013-06-25 07:55:00,
2013-06-25 11:00:00,86.4,71.8,29.77,SW,217,3.0,7.0,62,0.00,SCT,,0.00,WeatherDisplay:10.37,2013-06-25 08:00:00,
2013-06-25 11:05:00,86.6,71.0,29.77,SW,221,3.0,10.0,60,0.00,FEW,,0.00,WeatherDisplay:10.37,2013-06-25 08:05:00,
2013-06-25 11:10:00,86.9,72.3,29.77,SW,231,5.0,8.0,62,0.00,FEW,,0.00,WeatherDisplay:10.37,2013-06-25 08:10:00,
2013-06-25 11:15:00,86.8,72.2,29.77,WSW,242,5.0,9.0,62,0.00,FEW,,0.00,WeatherDisplay:10.37,2013-06-25 08:15:00,
2013-06-25 11:20:00,86.7,71.6,29.77,SW,235,5.0,9.0,61,0.00,FEW,,0.00,WeatherDisplay:10.37,2013-06-25 08:20:00,
2013-06-25 11:25:00,86.5,71.9,29.77,WSW,246,3.0,8.0,62,0.00,FEW,,0.00,WeatherDisplay:10.37,2013-06-25 08:25:00,
2013-06-25 11:30:00,86.7,71.6,29.77,WSW,243,6.0,12.0,61,0.00,FEW,,0.00,WeatherDisplay:10.37,2013-06-25 08:30:00,
2013-06-25 11:35:00,86.6,71.5,29.77,SW,223,3.0,9.0,61,0.00,FEW,,0.00,WeatherDisplay:10.37,2013-06-25 08:35:00,
2013-06-25 11:40:00,87.0,71.4,29.77,SW,220,3.0,8.0,60,0.00,FEW,,0.00,WeatherDisplay:10.37,2013-06-25 08:40:00,
2013-06-25 11:45:00,86.9,71.3,29.77,WSW,238,6.0,16.0,60,0.00,FEW,,0.00,WeatherDisplay:10.37,2013-06-25 08:45:00,
2013-06-25 11:50:00,86.8,71.2,29.77,SW,235,5.0,8.0,60,0.00,FEW,,0.00,WeatherDisplay:10.37,2013-06-25 08:50:00,
2013-06-25 11:55:00,87.0,70.9,29.77,WSW,240,5.0,9.0,59,0.00,FEW,,0.00,WeatherDisplay:10.37,2013-06-25 08:55:00,
2013-06-25 12:00:00,87.2,71.1,29.77,WSW,254,3.0,9.0,59,0.00,FEW,,0.00,WeatherDisplay:10.37,2013-06-25 09:00:00,
2013-06-25 12:05:00,87.3,71.2,29.77,WSW,255,7.0,12.0,59,0.00,FEW,,0.00,WeatherDisplay:10.37,2013-06-25 09:05:00,
2013-06-25 12:10:00,87.1,71.1,29.76,SW,236,6.0,9.0,59,0.00,FEW,,0.00,WeatherDisplay:10.37,2013-06-25 09:10:00,
2013-06-25 12:15:00,86.9,69.8,29.77,SW,220,5.0,8.0,57,0.00,FEW,,0.00,WeatherDisplay:10.37,2013-06-25 09:15:00,
2013-06-25 12:20:00,87.1,70.0,29.76,SW,224,5.0,9.0,57,0.00,FEW,,0.00,WeatherDisplay:10.37,2013-06-25 09:20:00,
2013-06-25 12:25:00,87.2,70.1,29.76,SW,222,3.0,9.0,57,0.00,FEW,,0.00,WeatherDisplay:10.37,2013-06-25 09:25:00,
2013-06-25 12:30:00,88.0,70.4,29.76,SW,233,3.0,9.0,56,0.00,FEW,,0.00,WeatherDisplay:10.37,2013-06-25 09:30:00,
2013-06-25 12:35:00,88.5,70.3,29.76,SW,234,3.0,9.0,55,0.00,CLR,,0.00,WeatherDisplay:10.37,2013-06-25 09:35:00,
2013-06-25 12:40:00,88.6,70.4,29.76,WSW,243,5.0,9.0,55,0.00,CLR,,0.00,WeatherDisplay:10.37,2013-06-25 09:40:00,
2013-06-25 12:45:00,88.7,69.9,29.76,WSW,256,6.0,10.0,54,0.00,CLR,,0.00,WeatherDisplay:10.37,2013-06-25 09:45:00,
2013-06-25 12:50:00,88.5,69.2,29.76,WSW,246,6.0,10.0,53,0.00,CLR,,0.00,WeatherDisplay:10.37,2013-06-25 09:50:00,
2013-06-25 12:55:00,88.7,68.8,29.76,WSW,239,5.0,10.0,52,0.00,CLR,,0.00,WeatherDisplay:10.37,2013-06-25 09:55:00,
2013-06-25 13:00:00,88.6,68.7,29.76,SW,232,5.0,9.0,52,0.00,CLR,,0.00,WeatherDisplay:10.37,2013-06-25 10:00:00,
2013-06-25 13:05:00,88.9,67.9,29.76,SW,219,3.0,8.0,50,0.00,CLR,,0.00,WeatherDisplay:10.37,2013-06-25 10:05:00,
2013-06-25 13:10:00,89.6,64.8,29.76,WSW,237,5.0,8.0,44,0.00,CLR,,0.00,WeatherDisplay:10.37,2013-06-25 10:10:00,
2013-06-25 13:15:00,89.8,66.9,29.76,WSW,243,3.0,7.0,47,0.00,CLR,,0.00,WeatherDisplay:10.37,2013-06-25 10:15:00,
2013-06-25 13:20:00,90.0,65.2,29.76,WSW,245,5.0,8.0,44,0.00,CLR,,0.00,WeatherDisplay:10.37,2013-06-25 10:20:00,
2013-06-25 13:25:00,89.7,62.9,29.76,WSW,245,5.0,12.0,41,0.00,CLR,,0.00,WeatherDisplay:10.37,2013-06-25 10:25:00,
2013-06-25 13:30:00,89.4,63.3,29.75,West,272,3.0,9.0,42,0.00,CLR,,0.00,WeatherDisplay:10.37,2013-06-25 10:30:00,
2013-06-25 13:35:00,89.7,61.5,29.76,West,279,5.0,8.0,39,0.00,CLR,,0.00,WeatherDisplay:10.37,2013-06-25 10:35:00,
2013-06-25 13:40:00,89.5,64.0,29.76,West,271,3.0,8.0,43,0.00,CLR,,0.00,WeatherDisplay:10.37,2013-06-25 10:40:00,
2013-06-25 13:45:00,89.6,66.1,29.76,West,272,2.0,7.0,46,0.00,CLR,,0.00,WeatherDisplay:10.37,2013-06-25 10:45:00,
2013-06-25 13:50:00,89.5,66.6,29.76,WSW,258,5.0,9.0,47,0.00,CLR,,0.00,WeatherDisplay:10.37,2013-06-25 10:50:00,
2013-06-25 13:55:00,89.5,64.0,29.76,SW,234,3.0,8.0,43,0.00,CLR,,0.00,WeatherDisplay:10.37,2013-06-25 10:55:00,
2013-06-25 14:00:00,89.6,66.7,29.76,SW,223,5.0,10.0,47,0.00,CLR,,0.00,WeatherDisplay:10.37,2013-06-25 11:00:00,
2013-06-25 14:05:00,89.8,66.9,29.76,SW,233,5.0,9.0,47,0.00,CLR,,0.00,WeatherDisplay:10.37,2013-06-25 11:05:00,
2013-06-25 14:10:00,89.5,65.4,29.76,WSW,238,2.0,8.0,45,0.00,CLR,,0.00,WeatherDisplay:10.37,2013-06-25 11:10:00,
2013-06-25 14:15:00,89.9,63.8,29.76,SW,220,3.0,9.0,42,0.00,CLR,,0.00,WeatherDisplay:10.37,2013-06-25 11:15:00,
2013-06-25 14:20:00,89.8,64.3,29.75,SW,217,3.0,8.0,43,0.00,CLR,,0.00,WeatherDisplay:10.37,2013-06-25 11:20:00,
2013-06-25 14:25:00,89.7,64.9,29.75,SW,223,5.0,10.0,44,0.00,CLR,,0.00,WeatherDisplay:10.37,2013-06-25 11:25:00,
2013-06-25 14:30:00,89.4,64.0,29.75,SW,220,5.0,9.0,43,0.00,CLR,,0.00,WeatherDisplay:10.37,2013-06-25 11:30:00,
2013-06-25 14:35:00,89.6,63.5,29.75,SW,222,3.0,10.0,42,0.00,CLR,,0.00,WeatherDisplay:10.37,2013-06-25 11:35:00,
2013-06-25 14:40:00,89.9,63.8,29.75,SW,226,3.0,10.0,42,0.00,CLR,,0.00,WeatherDisplay:10.37,2013-06-25 11:40:00,
2013-06-25 14:45:00,90.1,64.6,29.75,WSW,237,3.0,9.0,43,0.00,CLR,,0.00,WeatherDisplay:10.37,2013-06-25 11:45:00,
2013-06-25 14:50:00,90.0,64.5,29.75,SW,235,2.0,12.0,43,0.00,CLR,,0.00,WeatherDisplay:10.37,2013-06-25 11:50:00,
2013-06-25 14:55:00,90.0,65.8,29.75,WSW,239,2.0,6.0,45,0.00,CLR,,0.00,WeatherDisplay:10.37,2013-06-25 11:55:00,
2013-06-25 15:00:00,90.1,64.6,29.75,WSW,256,3.0,9.0,43,0.00,CLR,,0.00,WeatherDisplay:10.37,2013-06-25 12:00:00,
2013-06-25 15:05:00,89.8,66.2,29.75,WSW,249,3.0,9.0,46,0.00,CLR,,0.00,WeatherDisplay:10.37,2013-06-25 12:05:00,
2013-06-25 15:10:00,90.0,65.1,29.75,WSW,243,5.0,9.0,44,0.00,CLR,,0.00,WeatherDisplay:10.37,2013-06-25 12:10:00,
2013-06-25 15:15:00,89.8,63.7,29.75,WSW,255,3.0,12.0,42,0.00,CLR,,0.00,WeatherDisplay:10.37,2013-06-25 12:15:00,
2013-06-25 15:20:00,90.3,65.4,29.75,West,266,3.0,12.0,44,0.00,CLR,,0.00,WeatherDisplay:10.37,2013-06-25 12:20:00,
2013-06-25 15:25:00,90.0,63.1,29.75,West,265,5.0,12.0,41,0.00,CLR,,0.00,WeatherDisplay:10.37,2013-06-25 12:25:00,
2013-06-25 15:30:00,89.7,64.9,29.75,West,265,3.0,8.0,44,0.00,CLR,,0.00,WeatherDisplay:10.37,2013-06-25 12:30:00,
2013-06-25 15:35:00,89.6,65.4,29.75,West,259,3.0,9.0,45,0.00,CLR,,0.00,WeatherDisplay:10.37,2013-06-25 12:35:00,
2013-06-25 15:40:00,89.8,65.6,29.75,WSW,244,3.0,9.0,45,0.00,CLR,,0.00,WeatherDisplay:10.37,2013-06-25 12:40:00,
2013-06-25 15:45:00,89.8,64.3,29.75,WSW,252,3.0,8.0,43,0.00,CLR,,0.00,WeatherDisplay:10.37,2013-06-25 12:45:00,
2013-06-25 15:50:00,89.6,66.1,29.75,WSW,255,3.0,10.0,46,0.00,CLR,,0.00,WeatherDisplay:10.37,2013-06-25 12:50:00,
2013-06-25 15:55:00,89.4,66.6,29.75,WSW,243,7.0,12.0,47,0.00,CLR,,0.00,WeatherDisplay:10.37,2013-06-25 12:55:00,
2013-06-25 16:05:00,89.5,66.6,29.75,WSW,239,5.0,7.0,47,0.00,CLR,,0.00,WeatherDisplay:10.37,2013-06-25 13:05:00,
2013-06-25 16:10:00,89.6,67.3,29.75,SW,233,5.0,9.0,48,0.00,CLR,,0.00,WeatherDisplay:10.37,2013-06-25 13:10:00,
2013-06-25 16:15:00,89.5,66.0,29.75,WSW,240,5.0,8.0,46,0.00,CLR,,0.00,WeatherDisplay:10.37,2013-06-25 13:15:00,
2013-06-25 16:20:00,89.2,67.0,29.75,WSW,243,3.0,9.0,48,0.00,CLR,,0.00,WeatherDisplay:10.37,2013-06-25 13:20:00,
2013-06-25 16:25:00,89.0,66.8,29.75,WSW,239,3.0,9.0,48,0.00,CLR,,0.00,WeatherDisplay:10.37,2013-06-25 13:25:00,
2013-06-25 16:30:00,88.6,66.4,29.75,SW,236,5.0,10.0,48,0.00,CLR,,0.00,WeatherDisplay:10.37,2013-06-25 13:30:00,
2013-06-25 16:40:00,88.5,66.3,29.74,WSW,245,3.0,7.0,48,0.00,CLR,,0.00,WeatherDisplay:10.37,2013-06-25 13:40:00,
2013-06-25 16:45:00,88.5,68.1,29.74,WSW,243,5.0,8.0,51,0.00,CLR,,0.00,WeatherDisplay:10.37,2013-06-25 13:45:00,
2013-06-25 16:50:00,88.2,67.8,29.74,WSW,243,3.0,8.0,51,0.00,CLR,,0.00,WeatherDisplay:10.37,2013-06-25 13:50:00,
2013-06-25 16:55:00,88.2,66.6,29.74,WSW,244,3.0,9.0,49,0.00,CLR,,0.00,WeatherDisplay:10.37,2013-06-25 13:55:00,
2013-06-25 17:00:00,88.1,67.7,29.74,West,259,3.0,8.0,51,0.00,CLR,,0.00,WeatherDisplay:10.37,2013-06-25 14:00:00,
2013-06-25 17:05:00,88.2,68.4,29.74,WSW,249,3.0,6.0,52,0.00,CLR,,0.00,WeatherDisplay:10.37,2013-06-25 14:05:00,
2013-06-25 17:10:00,88.1,67.1,29.74,WSW,247,3.0,7.0,50,0.00,CLR,,0.00,WeatherDisplay:10.37,2013-06-25 14:10:00,
2013-06-25 17:15:00,88.1,65.3,29.74,WSW,244,5.0,10.0,47,0.00,CLR,,0.00,WeatherDisplay:10.37,2013-06-25 14:15:00,
2013-06-25 17:25:00,88.0,65.2,29.74,West,266,3.0,7.0,47,0.00,CLR,,0.00,WeatherDisplay:10.37,2013-06-25 14:25:00,
2013-06-25 17:30:00,88.2,65.4,29.74,West,260,2.0,7.0,47,0.00,CLR,,0.00,WeatherDisplay:10.37,2013-06-25 14:30:00,
2013-06-25 17:35:00,88.0,66.4,29.74,WSW,254,2.0,7.0,49,0.00,CLR,,0.00,WeatherDisplay:10.37,2013-06-25 14:35:00,
2013-06-25 17:40:00,88.1,67.7,29.74,WSW,239,2.0,6.0,51,0.00,CLR,,0.00,WeatherDisplay:10.37,2013-06-25 14:40:00,
2013-06-25 17:45:00,88.0,67.0,29.74,WSW,253,3.0,7.0,50,0.00,CLR,,0.00,WeatherDisplay:10.37,2013-06-25 14:45:00,
2013-06-25 17:50:00,88.1,67.1,29.74,WSW,242,3.0,6.0,50,0.00,CLR,,0.00,WeatherDisplay:10.37,2013-06-25 14:50:00,
2013-06-25 17:55:00,87.8,68.5,29.74,SW,227,3.0,7.0,53,0.00,CLR,,0.00,WeatherDisplay:10.37,2013-06-25 14:55:00,
2013-06-25 18:05:00,87.3,68.1,29.74,WSW,258,2.0,5.0,53,0.00,CLR,,0.00,WeatherDisplay:10.37,2013-06-25 15:05:00,
2013-06-25 18:10:00,87.0,68.9,29.75,WSW,244,3.0,7.0,55,0.00,CLR,,0.00,WeatherDisplay:10.37,2013-06-25 15:10:00,
2013-06-25 18:15:00,86.8,69.2,29.75,SW,226,3.0,5.0,56,0.00,CLR,,0.00,WeatherDisplay:10.37,2013-06-25 15:15:00,
2013-06-25 18:20:00,86.6,69.0,29.75,SW,229,2.0,6.0,56,0.00,CLR,,0.00,WeatherDisplay:10.37,2013-06-25 15:20:00,
2013-06-25 18:25:00,86.5,69.5,29.75,WSW,240,2.0,8.0,57,0.00,CLR,,0.00,WeatherDisplay:10.37,2013-06-25 15:25:00,
2013-06-25 18:30:00,86.3,68.8,29.75,WSW,257,1.0,5.0,56,0.00,CLR,,0.00,WeatherDisplay:10.37,2013-06-25 15:30:00,
2013-06-25 18:35:00,86.0,68.5,29.75,West,260,1.0,6.0,56,0.00,CLR,,0.00,WeatherDisplay:10.37,2013-06-25 15:35:00,
2013-06-25 18:40:00,86.1,68.5,29.75,WSW,244,2.0,5.0,56,0.00,CLR,,0.00,WeatherDisplay:10.37,2013-06-25 15:40:00,
2013-06-25 18:45:00,86.0,68.5,29.75,SW,223,0.0,4.0,56,0.00,CLR,,0.00,WeatherDisplay:10.37,2013-06-25 15:45:00,
2013-06-25 18:50:00,85.9,68.4,29.75,WSW,246,2.0,5.0,56,0.00,CLR,,0.00,WeatherDisplay:10.37,2013-06-25 15:50:00,
2013-06-25 18:55:00,85.7,68.2,29.75,WSW,252,2.0,5.0,56,0.00,CLR,,0.00,WeatherDisplay:10.37,2013-06-25 15:55:00,
2013-06-25 19:00:00,85.5,68.5,29.75,WSW,239,1.0,5.0,57,0.00,CLR,,0.00,WeatherDisplay:10.37,2013-06-25 16:00:00,
2013-06-25 19:05:00,85.4,68.4,29.75,SW,235,2.0,5.0,57,0.00,CLR,,0.00,WeatherDisplay:10.37,2013-06-25 16:05:00,
2013-06-25 19:10:00,85.1,68.7,29.76,SW,229,2.0,5.0,58,0.00,CLR,,0.00,WeatherDisplay:10.37,2013-06-25 16:10:00,
2013-06-25 19:15:00,84.8,68.9,29.76,SW,232,2.0,5.0,59,0.00,CLR,,0.00,WeatherDisplay:10.37,2013-06-25 16:15:00,
2013-06-25 19:20:00,84.4,68.0,29.76,SW,233,2.0,4.0,58,0.00,CLR,,0.00,WeatherDisplay:10.37,2013-06-25 16:20:00,
2013-06-25 19:25:00,84.0,67.2,29.76,SW,226,2.0,4.0,57,0.00,CLR,,0.00,WeatherDisplay:10.37,2013-06-25 16:25:00,
2013-06-25 19:30:00,83.7,66.4,29.76,SW,224,1.0,3.0,56,0.00,CLR,,0.00,WeatherDisplay:10.37,2013-06-25 16:30:00,
2013-06-25 19:35:00,83.5,66.7,29.76,SW,234,1.0,4.0,57,0.00,CLR,,0.00,WeatherDisplay:10.37,2013-06-25 16:35:00,
2013-06-25 19:40:00,83.3,66.5,29.76,WSW,252,0.0,3.0,57,0.00,CLR,,0.00,WeatherDisplay:10.37,2013-06-25 16:40:00,
2013-06-25 19:45:00,83.0,66.2,29.76,WSW,257,0.0,3.0,57,0.00,CLR,,0.00,WeatherDisplay:10.37,2013-06-25 16:45:00,
2013-06-25 19:50:00,82.7,66.4,29.76,WSW,257,0.0,4.0,58,0.00,CLR,,0.00,WeatherDisplay:10.37,2013-06-25 16:50:00,
2013-06-25 19:55:00,82.5,66.7,29.76,WSW,257,0.0,2.0,59,0.00,CLR,,0.00,WeatherDisplay:10.37,2013-06-25 16:55:00,
2013-06-25 20:00:00,82.2,66.9,29.76,WSW,256,0.0,1.0,60,0.00,CLR,,0.00,WeatherDisplay:10.37,2013-06-25 17:00:00,
2013-06-25 20:05:00,81.9,66.7,29.77,WSW,256,0.0,2.0,60,0.00,CLR,,0.00,WeatherDisplay:10.37,2013-06-25 17:05:00,
2013-06-25 20:10:00,81.7,66.9,29.77,WSW,256,0.0,1.0,61,0.00,CLR,,0.00,WeatherDisplay:10.37,2013-06-25 17:10:00,
2013-06-25 20:15:00,81.5,67.2,29.77,WSW,256,0.0,1.0,62,0.00,CLR,,0.00,WeatherDisplay:10.37,2013-06-25 17:15:00,
2013-06-25 20:20:00,81.2,67.9,29.77,WSW,256,0.0,1.0,64,0.00,CLR,,0.00,WeatherDisplay:10.37,2013-06-25 17:20:00,
2013-06-25 20:25:00,81.0,68.6,29.77,WSW,256,0.0,2.0,66,0.00,CLR,,0.00,WeatherDisplay:10.37,2013-06-25 17:25:00,
2013-06-25 20:30:00,80.8,68.8,29.77,WSW,256,0.0,1.0,67,0.00,CLR,,0.00,WeatherDisplay:10.37,2013-06-25 17:30:00,
2013-06-25 20:35:00,80.6,69.1,29.77,WSW,256,0.0,1.0,68,0.00,CLR,,0.00,WeatherDisplay:10.37,2013-06-25 17:35:00,
2013-06-25 20:40:00,80.4,69.7,29.77,WSW,256,0.0,2.0,70,0.00,CLR,,0.00,WeatherDisplay:10.37,2013-06-25 17:40:00,
2013-06-25 20:45:00,80.2,69.9,29.77,WSW,256,0.0,2.0,71,0.00,CLR,,0.00,WeatherDisplay:10.37,2013-06-25 17:45:00,
2013-06-25 20:50:00,79.9,70.5,29.77,WSW,256,0.0,2.0,73,0.00,CLR,,0.00,WeatherDisplay:10.37,2013-06-25 17:50:00,
2013-06-25 20:55:00,79.7,70.7,29.77,WSW,256,0.0,2.0,74,0.00,CLR,,0.00,WeatherDisplay:10.37,2013-06-25 17:55:00,
2013-06-25 21:00:00,79.5,70.9,29.77,WSW,256,0.0,1.0,75,0.00,CLR,,0.00,WeatherDisplay:10.37,2013-06-25 18:00:00,
2013-06-25 21:05:00,79.3,70.7,29.77,WSW,256,0.0,1.0,75,0.00,CLR,,0.00,WeatherDisplay:10.37,2013-06-25 18:05:00,
2013-06-25 21:10:00,79.1,70.5,29.77,WSW,256,0.0,0.0,75,0.00,CLR,,0.00,WeatherDisplay:10.37,2013-06-25 18:10:00,
2013-06-25 21:15:00,78.8,70.2,29.77,WSW,256,0.0,0.0,75,0.00,CLR,,0.00,WeatherDisplay:10.37,2013-06-25 18:15:00,
2013-06-25 21:20:00,78.6,70.4,29.77,WSW,256,0.0,0.0,76,0.00,CLR,,0.00,WeatherDisplay:10.37,2013-06-25 18:20:00,
2013-06-25 21:25:00,78.4,70.2,29.77,WSW,256,0.0,0.0,76,0.00,CLR,,0.00,WeatherDisplay:10.37,2013-06-25 18:25:00,
2013-06-25 21:30:00,78.3,70.9,29.77,WSW,256,0.0,1.0,78,0.00,CLR,,0.00,WeatherDisplay:10.37,2013-06-25 18:30:00,
2013-06-25 21:35:00,78.0,70.2,29.77,WSW,256,0.0,0.0,77,0.00,CLR,,0.00,WeatherDisplay:10.37,2013-06-25 18:35:00,
2013-06-25 21:40:00,77.8,70.8,29.77,WSW,256,0.0,0.0,79,0.00,CLR,,0.00,WeatherDisplay:10.37,2013-06-25 18:40:00,
2013-06-25 21:45:00,77.7,70.7,29.77,WSW,256,0.0,0.0,79,0.00,CLR,,0.00,WeatherDisplay:10.37,2013-06-25 18:45:00,
2013-06-25 21:50:00,77.7,71.0,29.78,WSW,256,0.0,2.0,80,0.00,CLR,,0.00,WeatherDisplay:10.37,2013-06-25 18:50:00,
2013-06-25 21:55:00,77.5,70.8,29.78,WSW,256,0.0,0.0,80,0.00,CLR,,0.00,WeatherDisplay:10.37,2013-06-25 18:55:00,
2013-06-25 22:00:00,77.4,70.7,29.78,WSW,256,0.0,0.0,80,0.00,CLR,,0.00,WeatherDisplay:10.37,2013-06-25 19:00:00,
2013-06-25 22:05:00,77.2,70.9,29.78,WSW,256,0.0,0.0,81,0.00,CLR,,0.00,WeatherDisplay:10.37,2013-06-25 19:05:00,
2013-06-25 22:10:00,77.0,70.7,29.78,WSW,256,0.0,1.0,81,0.00,CLR,,0.00,WeatherDisplay:10.37,2013-06-25 19:10:00,
2013-06-25 22:15:00,76.8,70.9,29.78,WSW,256,0.0,1.0,82,0.00,CLR,,0.00,WeatherDisplay:10.37,2013-06-25 19:15:00,
2013-06-25 22:20:00,76.7,71.1,29.78,WSW,256,0.0,1.0,83,0.00,CLR,,0.00,WeatherDisplay:10.37,2013-06-25 19:20:00,
2013-06-25 22:25:00,76.5,71.0,29.78,WSW,256,0.0,0.0,83,0.00,CLR,,0.00,WeatherDisplay:10.37,2013-06-25 19:25:00,
2013-06-25 22:30:00,76.4,70.9,29.78,WSW,256,0.0,0.0,83,0.00,CLR,,0.00,WeatherDisplay:10.37,2013-06-25 19:30:00,
2013-06-25 22:35:00,76.2,71.0,29.78,WSW,256,0.0,0.0,84,0.00,CLR,,0.00,WeatherDisplay:10.37,2013-06-25 19:35:00,
2013-06-25 22:40:00,76.1,70.9,29.78,WSW,256,0.0,0.0,84,0.00,CLR,,0.00,WeatherDisplay:10.37,2013-06-25 19:40:00,
2013-06-25 22:45:00,76.0,70.8,29.78,WSW,256,0.0,0.0,84,0.00,CLR,,0.00,WeatherDisplay:10.37,2013-06-25 19:45:00,
2013-06-25 22:50:00,76.1,71.3,29.78,WSW,256,0.0,0.0,85,0.00,CLR,,0.00,WeatherDisplay:10.37,2013-06-25 19:50:00,
2013-06-25 22:55:00,76.1,71.3,29.78,WSW,256,0.0,0.0,85,0.00,CLR,,0.00,WeatherDisplay:10.37,2013-06-25 19:55:00,
2013-06-25 23:00:00,76.2,71.4,29.78,WSW,256,0.0,0.0,85,0.00,CLR,,0.00,WeatherDisplay:10.37,2013-06-25 20:00:00,
2013-06-25 23:05:00,76.0,70.8,29.78,WSW,256,0.0,0.0,84,0.00,CLR,,0.00,WeatherDisplay:10.37,2013-06-25 20:05:00,
2013-06-25 23:10:00,76.0,70.8,29.78,WSW,256,0.0,0.0,84,0.00,CLR,,0.00,WeatherDisplay:10.37,2013-06-25 20:10:00,
2013-06-25 23:20:00,75.9,70.7,29.78,WSW,256,0.0,0.0,84,0.00,CLR,,0.00,WeatherDisplay:10.37,2013-06-25 20:20:00,
2013-06-25 23:25:00,75.8,70.3,29.78,WSW,256,0.0,0.0,83,0.00,CLR,,0.00,WeatherDisplay:10.37,2013-06-25 20:25:00,
2013-06-25 23:30:00,75.7,70.5,29.78,WSW,256,0.0,0.0,84,0.00,CLR,,0.00,WeatherDisplay:10.37,2013-06-25 20:30:00,
2013-06-25 23:35:00,75.8,70.9,29.78,WSW,256,0.0,0.0,85,0.00,CLR,,0.00,WeatherDisplay:10.37,2013-06-25 20:35:00,
2013-06-25 23:40:00,75.7,70.5,29.78,WSW,256,0.0,0.0,84,0.00,CLR,,0.00,WeatherDisplay:10.37,2013-06-25 20:40:00,
2013-06-25 23:45:00,75.6,70.4,29.78,WSW,256,0.0,0.0,84,0.00,CLR,,0.00,WeatherDisplay:10.37,2013-06-25 20:45:00,
2013-06-25 23:50:00,75.5,70.3,29.78,WSW,256,0.0,0.0,84,0.00,CLR,,0.00,WeatherDisplay:10.37,2013-06-25 20:50:00,
2013-06-25 23:55:00,75.4,70.2,29.78,WSW,256,0.0,0.0,84,0.00,CLR,,0.00,WeatherDisplay:10.37,2013-06-25 20:55:00,